SP1ZPL-13 Weather Reports


time (UTC)temp
C
wind
direction
speed
KPH
gust
KPH
rain 1hr
cm
rain 24hr
cm
rain mn
cm
humidity
%
barometer
mb
20260507200035 8 357 3.2 6.4 0.00 0.00 0.00 63 1017.5
20260507195028 8 335 1.6 3.2 0.00 0.00 0.00 63 1017.4
20260507194026 8 10 1.6 4.8 0.00 0.00 0.00 63 1017.4
20260507193024 8 351 1.6 6.4 0.00 0.00 0.00 63 1017.4
20260507192021 9 55 1.6 4.8 0.00 0.00 0.00 63 1017.2
20260507191039 9 20 1.6 4.8 0.00 0.00 0.00 62 1017.2
20260507190016 10 6 3.2 8.0 0.00 0.00 0.00 62 1017.0
20260507185028 10 4 3.2 6.4 0.00 0.00 0.00 62 1016.9
20260507184026 10 335 1.6 6.4 0.00 0.00 0.00 62 1016.8
20260507183024 10 60 3.2 11.3 0.00 0.00 0.00 61 1016.7
20260507182021 10 0 4.8 12.9 0.00 0.00 0.00 61 1016.7
20260507181019 10 66 4.8 12.9 0.00 0.00 0.00 61 1016.6
20260507180016 11 187 4.8 11.3 0.00 0.00 0.00 61 1016.5
20260507175029 11 66 3.2 12.9 0.00 0.00 0.00 61 1016.4
20260507174026 11 320 3.2 8.0 0.00 0.00 0.00 61 1016.3
20260507173024 11 301 4.8 12.9 0.00 0.00 0.00 61 1016.3
20260507172041 11 2 4.8 12.9 0.00 0.00 0.00 60 1016.2
20260507171039 11 284 4.8 11.3 0.00 0.00 0.00 60 1016.2
20260507170017 11 17 3.2 14.5 0.00 0.00 0.00 60 1016.1
20260507165029 11 96 4.8 11.3 0.00 0.00 0.00 60 1016.0
20260507164026 11 292 4.8 12.9 0.00 0.00 0.00 60 1015.9
20260507163025 11 353 4.8 12.9 0.00 0.00 0.00 59 1016.0
20260507162041 11 4 4.8 12.9 0.00 0.00 0.00 59 1016.0
20260507161019 11 313 6.4 25.7 0.00 0.00 0.00 59 1016.0
20260507160017 11 344 6.4 16.1 0.00 0.00 0.00 59 1015.9
20260507155029 11 269 4.8 12.9 0.00 0.00 0.00 58 1015.9
20260507154027 12 27 6.4 16.1 0.00 0.00 0.00 58 1015.8
20260507153024 12 291 6.4 25.7 0.00 0.00 0.00 57 1015.7
20260507152042 12 358 6.4 17.7 0.00 0.00 0.00 56 1015.6
20260507151020 12 206 6.4 12.9 0.00 0.00 0.00 52 1015.6
20260507150017 12 251 6.4 17.7 0.00 0.00 0.00 54 1015.5
20260507145050 12 84 6.4 17.7 0.00 0.00 0.00 51 1015.4
20260507144027 12 38 4.8 12.9 0.00 0.00 0.00 52 1015.4
20260507143025 12 313 6.4 17.7 0.00 0.00 0.00 52 1015.3
20260507142022 12 79 8.0 17.7 0.00 0.00 0.00 52 1015.2
20260507141020 12 344 9.7 17.7 0.00 0.00 0.00 57 1015.2
20260507140017 12 339 9.7 17.7 0.00 0.00 0.00 55 1015.3
20260507135015 12 6 8.0 12.9 0.00 0.00 0.00 58 1015.2
20260507134027 12 351 8.0 17.7 0.00 0.00 0.00 58 1015.1
20260507133025 12 5 9.7 17.7 0.00 0.00 0.00 53 1015.0
20260507132042 12 359 8.0 19.3 0.00 0.00 0.00 53 1015.0
20260507131040 12 14 6.4 12.9 0.00 0.00 0.00 53 1014.9
20260507130018 12 355 12.9 17.7 0.00 0.03 0.00 54 1014.9
20260507125015 12 9 8.0 17.7 0.00 0.03 0.00 52 1014.9
20260507124027 12 26 11.3 19.3 0.00 0.03 0.00 52 1014.7
20260507123025 13 351 9.7 16.1 0.00 0.03 0.00 51 1014.7
20260507122023 13 22 12.9 19.3 0.00 0.03 0.00 50 1014.6
20260507121020 13 338 8.0 16.1 0.00 0.03 0.00 47 1014.6
20260507120018 13 346 6.4 16.1 0.00 0.03 0.00 50 1014.5
20260507115035 12 358 9.7 25.7 0.00 0.03 0.00 51 1014.5
20260507114028 12 5 12.9 17.7 0.00 0.03 0.00 50 1014.3
20260507113045 13 58 8.0 16.1 0.00 0.03 0.00 47 1014.3
20260507112023 13 3 11.3 17.7 0.00 0.05 0.00 49 1014.3
20260507111020 13 29 11.3 17.7 0.00 0.05 0.00 47 1014.3
20260507110018 13 337 11.3 17.7 0.00 0.10 0.00 46 1014.2
20260507105016 15 356 9.7 16.1 0.00 0.10 0.00 44 1014.1
20260507104028 14 344 9.7 27.4 0.00 0.10 0.00 47 1014.1
20260507103025 15 347 9.7 24.1 0.00 0.10 0.00 46 1014.0
20260507102023 14 343 8.0 17.7 0.00 0.10 0.00 51 1014.0
20260507101021 13 355 9.7 17.7 0.00 0.13 0.00 52 1013.9
20260507100038 12 345 8.0 22.5 0.00 0.13 0.00 53 1013.8
20260507095017 13 14 9.7 17.7 0.00 0.15 0.00 53 1013.8
20260507094029 12 351 8.0 17.7 0.00 0.15 0.00 57 1013.8
20260507093026 12 0 12.9 20.9 0.00 0.15 0.00 53 1013.6
20260507092024 13 317 11.3 20.9 0.00 0.18 0.00 54 1013.5
20260507091041 13 347 12.9 24.1 0.00 0.18 0.00 54 1013.4
20260507090019 12 11 12.9 24.1 0.00 0.18 0.00 59 1013.6
20260507085017 11 358 12.9 24.1 0.00 0.20 0.00 62 1013.5
20260507084029 11 328 12.9 24.1 0.00 0.20 0.00 65 1013.5
20260507083026 10 8 8.0 17.7 0.00 0.20 0.00 67 1013.4
20260507082024 10 322 9.7 22.5 0.00 0.20 0.00 70 1013.5
20260507081041 10 66 6.4 12.9 0.00 0.20 0.00 70 1013.5
20260507080019 10 56 6.4 12.9 0.00 0.20 0.00 70 1013.4
20260507075037 9 327 8.0 25.7 0.00 0.23 0.00 70 1013.2
20260507074029 9 31 8.0 14.5 0.00 0.28 0.00 71 1013.1
20260507073027 8 321 9.7 19.3 0.00 0.28 0.00 72 1012.9
20260507072025 8 29 6.4 16.1 0.00 0.28 0.00 74 1012.8
20260507071022 8 110 6.4 16.1 0.00 0.28 0.00 75 1012.9
20260507070019 7 313 6.4 16.1 0.00 0.30 0.00 76 1012.8
20260507065017 7 70 8.0 22.5 0.00 0.30 0.00 76 1012.7
20260507064029 7 45 8.0 17.7 0.00 0.33 0.00 77 1012.6
20260507063028 7 18 11.3 24.1 0.00 0.36 0.00 78 1012.6
20260507062044 7 247 3.2 8.0 0.00 0.38 0.00 82 1012.5
20260507061042 7 19 4.8 11.3 0.00 0.38 0.00 85 1012.5
20260507060019 7 325 6.4 19.3 0.00 0.43 0.00 85 1012.3
20260507055017 7 7 8.0 25.7 0.00 0.46 0.00 87 1012.3
20260507054030 7 8 9.7 24.1 0.00 0.48 0.00 88 1012.2
20260507053027 7 91 6.4 17.7 0.00 0.51 0.00 89 1012.2
20260507052025 6 331 8.0 19.3 0.00 0.53 0.00 90 1012.1
20260507051022 6 206 6.4 19.3 0.00 0.56 0.00 90 1012.0
20260507050020 7 157 8.0 17.7 0.00 0.64 0.00 90 1012.0
20260507045017 7 10 9.7 19.3 0.00 0.66 0.00 89 1011.9
20260507044015 7 5 4.8 19.3 0.00 0.69 0.00 89 1011.6
20260507043028 7 55 4.8 11.3 0.00 0.76 0.00 88 1011.5
20260507042025 7 218 6.4 22.5 0.00 0.76 0.00 88 1011.2
20260507041023 7 25 4.8 11.3 0.00 0.81 0.00 89 1011.3
20260507040040 7 359 6.4 14.5 0.00 0.84 0.00 88 1011.1
20260507035017 7 254 4.8 9.7 0.00 0.86 0.00 88 1011.0
20260507034015 7 22 4.8 11.3 0.00 0.86 0.00 87 1011.0
20260507033048 7 54 3.2 6.4 0.00 0.86 0.00 86 1010.9
20260507032025 7 13 3.2 8.0 0.00 0.86 0.00 86 1010.8
20260507031043 7 16 3.2 6.4 0.00 0.86 0.00 86 1010.7
20260507030020 7 59 4.8 12.9 0.00 0.86 0.00 86 1010.7
20260507025018 7 288 6.4 17.7 0.00 0.86 0.00 86 1010.7
20260507024016 7 323 8.0 17.7 0.00 0.86 0.00 86 1010.7
20260507023028 7 356 8.0 22.5 0.00 0.86 0.00 86 1010.6
20260507022025 7 324 8.0 17.7 0.00 0.86 0.00 87 1010.6
20260507021043 7 33 9.7 20.9 0.00 0.86 0.00 89 1010.6
20260507020021 7 86 3.2 12.9 0.00 0.86 0.00 90 1010.5
20260507015018 7 330 8.0 19.3 0.00 0.86 0.00 90 1010.5
20260507014015 7 331 4.8 17.7 0.00 0.86 0.00 90 1010.4
20260507013028 6 0 8.0 17.7 0.00 0.86 0.00 91 1010.2
20260507012026 6 344 4.8 12.9 0.00 0.86 0.00 91 1010.2
20260507011023 6 94 3.2 6.4 0.00 0.86 0.00 91 1010.1
20260507010021 6 164 4.8 14.5 0.00 0.86 0.00 91 1009.9
20260507005018 7 162 3.2 8.0 0.00 0.86 0.00 91 1009.9
20260507004015 7 93 4.8 17.7 0.00 0.86 0.00 91 1009.9
20260507003028 7 338 3.2 8.0 0.00 0.86 0.00 91 1010.2
20260507002026 7 98 4.8 11.3 0.00 0.86 0.00 90 1010.2
20260507001024 7 26 3.2 8.0 0.00 0.86 0.00 90 1009.9
20260507000022 7 311 3.2 12.9 0.00 0.86 0.00 90 1009.9
20260506235018 7 18 6.4 16.1 0.00 0.86 0.00 91 1009.7
20260506234016 7 335 4.8 8.0 0.00 0.86 0.00 91 1009.6
20260506233028 7 70 3.2 8.0 0.00 0.86 0.00 91 1009.7
20260506232026 7 344 4.8 14.5 0.00 0.86 0.00 90 1009.6
20260506231023 7 39 3.2 9.7 0.00 0.86 0.00 90 1009.5
20260506230021 7 38 3.2 9.7 0.00 0.86 0.00 90 1009.7
20260506225018 7 9 4.8 16.1 0.00 0.86 0.00 90 1009.6
20260506224016 7 337 4.8 11.3 0.00 0.86 0.00 90 1009.7
20260506223049 7 313 4.8 11.3 0.00 0.86 0.00 90 1009.5
20260506222026 7 231 6.4 16.1 0.00 0.86 0.00 90 1009.5
20260506221044 7 318 4.8 20.9 0.00 0.86 0.00 90 1009.7
20260506220021 7 24 8.0 30.6 0.00 0.86 0.00 90 1009.6
20260506215018 7 331 9.7 27.4 0.00 0.86 0.86 91 1009.6
20260506214016 7 334 9.7 25.7 0.00 0.86 0.86 91 1009.6
20260506213029 7 15 4.8 11.3 0.00 0.86 0.86 91 1009.7
20260506212026 7 359 3.2 11.3 0.00 0.86 0.86 91 1009.6
20260506211024 7 359 4.8 14.5 0.00 0.86 0.86 91 1009.2
20260506210021 7 356 8.0 22.5 0.00 0.86 0.86 91 1009.1
20260506205019 7 358 4.8 22.5 0.00 0.86 0.86 90 1009.1
20260506204017 7 4 6.4 14.5 0.00 0.86 0.86 90 1008.9
20260506203029 7 95 4.8 17.7 0.00 0.86 0.86 90 1008.9
20260506202027 7 278 8.0 17.7 0.00 0.86 0.86 90 1008.8
20260506201044 7 349 6.4 22.5 0.00 0.86 0.86 90 1009.0